Hourly Data Report for September 27, 2017

All times are specified in Local Standard Time (LST). Add 1 hour to adjust for Daylight Saving Time where and when it is observed.

SAINT JOHN A
NEW BRUNSWICK

45°18'58.000" N
65°53'24.000" W
108.80 m
8104901
71609
YSJ

Download Data

Hourly Data (September 2017)
Hourly Data Report for September 27, 2017
Temp Definition
°C
Dew Point Temp Definition
°C
Rel Hum Definition
%
Wind Dir Definition
10's deg

Wind Spd Definition
km/h
Visibility Definition
km
Stn Press Definition
kPa
Hmdx Definition


Wind Chill Definition


Weather Definition


TIME
00:00 Legend Double Dagger 15.9 14.7 92 8 10 24.1 100.33     LegendNANA
01:00 Legend Double Dagger 15.8 14.5 92 9 9 24.1 100.31     LegendNANA
02:00 Legend Double Dagger 15.9 14.9 94 8 12 8.1 100.29     Fog
03:00 Legend Double Dagger 15.6 15.0 96 9 13 3.2 100.24     Fog
04:00 Legend Double Dagger 15.4 15.1 98 9 7 2.4 100.22     Fog
05:00 Legend Double Dagger 15.4 15.2 99 8 8 2.4 100.20     Fog
06:00 Legend Double Dagger 15.3 15.1 98 9 9 2.4 100.16     Drizzle,Fog
07:00 Legend Double Dagger 15.6 15.3 98 10 8 2.4 100.17     Fog
08:00 Legend Double Dagger 15.7 15.4 98 14 4 2.4 100.15     Fog
09:00 Legend Double Dagger 15.9 15.5 98 14 8 2.0 100.13     Fog
10:00 Legend Double Dagger 16.6 16.2 97 13 14 1.6 100.10     Fog
11:00 Legend Double Dagger 17.6 17.2 97 17 12 1.2 100.05     Fog
12:00 Legend Double Dagger 19.1 17.8 92 19 14 4.8 99.99     Fog
13:00 Legend Double Dagger 20.5 18.1 86 20 18 24.1 99.92 27   LegendNANA
14:00 Legend Double Dagger 17.6 17.2 97 20 17 1.2 99.89     Fog
15:00 Legend Double Dagger 17.6 17.2 98 20 19 1.0 99.81     Fog
16:00 Legend Double Dagger 16.8 16.6 99 20 23 0.8 99.76     Fog
17:00 Legend Double Dagger 16.8 16.6 99 19 16 0.6 99.67     Fog
18:00 Legend Double Dagger 16.5 16.4 99 21 21 1.2 99.62     Fog
19:00 Legend Double Dagger 16.5 16.4 99 20 22 1.0 99.59     Fog
20:00 Legend Double Dagger 16.4 16.3 99 21 19 0.6 99.55     Fog
21:00 Legend Double Dagger 16.9 16.8 99 21 23 0.6 99.45     Fog
22:00 Legend Double Dagger 16.8 16.7 99 21 21 1.0 99.45     Drizzle,Fog
23:00 Legend Double Dagger 16.5 16.4 99 20 23 1.2 99.38     Fog

Notes on Data Quality.

Legend

  • E = Estimated
  • M = Missing
  • NA = Not Available
  • ‡ = Partner data that is not subject to review by the National Climate Archives
Date modified: